Sarasota, FL

3:18 PM EST on January 18, 2018 (GMT -0500)
Sarasota-bradenton

Weather History for KSRQ - April, 2014

Change the Weather History Date:

Monday, April 21, 2014

  Actual Average Record
Temperature  
Mean Temperature 68 °F 72 °F  
Max Temperature 76 °F 82 °F 91 °F (1946)
Min Temperature 60 °F 62 °F 45 °F (1953)
Degree Days  
Heating Degree Days 0 0  
Month to date heating degree days 0 8  
Since 1 July heating degree days 345 475  
Cooling Degree Days 3 7  
Month to date cooling degree days 127 123  
Year to date cooling degree days 329 327  
Growing Degree Days 18 (Base 50)    
Moisture  
Dew Point 57 °F    
Average Humidity 73    
Maximum Humidity 90    
Minimum Humidity 54    
Precipitation  
Precipitation 0.00 in 0.08 in 1.85 in (1945)
Month to date precipitation 1.24 1.80  
Year to date precipitation 11.33 10.85  
Sea Level Pressure  
Sea Level Pressure 30.03 in    
Wind  
Wind Speed 6 mph (NNE)    
Max Wind Speed 13 mph    
Max Gust Speed 17 mph    
Visibility 10 miles    
Events      
T = Trace of Precipitation, MM = Missing Value Source: NWS Daily Summary

Daily Weather History Graph

Daily Weather History Graph

Search for Another Location

Airport or City:

Trip Planner

Search our weather history database for the weather conditions in past years. The results will help you decide how hot, cold, wet, or windy it might be!

Date:

Astronomy

Apr. 21, 2014 Rise Set
Actual Time 6:59 AM EDT 7:58 PM EDT
Civil Twilight 6:35 AM EDT 8:22 PM EDT
Nautical Twilight 6:07 AM EDT 8:50 PM EDT
Astronomical Twilight 5:38 AM EDT 9:20 PM EDT
Moon 1:19 AM EDT (4/21) 12:31 PM EDT (4/21)
Length of Visible Light 13h 46m
Length of Day
12h 58m
Waning Gibbous, 58% of the Moon is Illuminated
Apr 21
Waning Gibbous
Apr 22
Last Quarter
Apr 29
New
May 6
First Quarter
May 14
Full

Hourly Weather History & Observations

Time (EDT) Temp. Dew Point Humidity Pressure Visibility Wind Dir Wind Speed Gust Speed Precip Events Conditions
12:14 AM 64.9 °F 60.1 °F 84% 30.06 in 10.0 mi NNE 6.9 mph - N/A   Mostly Cloudy
12:53 AM 64.0 °F 59.0 °F 84% 30.06 in 10.0 mi NNE 9.2 mph - N/A   Partly Cloudy
1:53 AM 63.0 °F 57.9 °F 84% 30.06 in 10.0 mi NE 6.9 mph - N/A   Partly Cloudy
2:25 AM 63.0 °F 57.0 °F 81% 30.05 in 10.0 mi NE 11.5 mph - N/A   Mostly Cloudy
2:53 AM 63.0 °F 57.0 °F 81% 30.04 in 10.0 mi NE 6.9 mph - N/A   Overcast
3:53 AM 63.0 °F 57.0 °F 81% 30.04 in 10.0 mi NE 4.6 mph - N/A   Overcast
4:53 AM 62.1 °F 55.9 °F 80% 30.04 in 10.0 mi North 5.8 mph - N/A   Overcast
5:53 AM 63.0 °F 55.9 °F 78% 30.05 in 10.0 mi NNE 5.8 mph - N/A   Overcast
6:53 AM 63.0 °F 55.9 °F 78% 30.06 in 10.0 mi NE 5.8 mph - N/A   Overcast
7:53 AM 63.0 °F 55.9 °F 78% 30.07 in 10.0 mi North 4.6 mph - N/A   Overcast
8:53 AM 64.9 °F 55.0 °F 70% 30.07 in 10.0 mi NE 5.8 mph - N/A   Overcast
9:53 AM 66.0 °F 55.9 °F 70% 30.09 in 10.0 mi NNE 8.1 mph - N/A   Overcast
10:53 AM 66.0 °F 55.9 °F 70% 30.09 in 10.0 mi NNE 8.1 mph - N/A   Overcast
11:53 AM 68.0 °F 57.0 °F 68% 30.08 in 10.0 mi NNW 8.1 mph - N/A   Overcast
12:53 PM 69.1 °F 57.0 °F 65% 30.06 in 10.0 mi NNE 6.9 mph - N/A   Overcast
1:53 PM 70.0 °F 57.0 °F 63% 30.04 in 10.0 mi North 9.2 mph - N/A   Overcast
2:53 PM 71.1 °F 57.9 °F 63% 30.02 in 10.0 mi North 8.1 mph - N/A   Overcast
3:53 PM 72.0 °F 57.0 °F 59% 30.00 in 10.0 mi NNW 8.1 mph - N/A   Mostly Cloudy
4:26 PM 72.0 °F 57.9 °F 61% 29.99 in 10.0 mi NE 8.1 mph - N/A   Overcast
4:53 PM 75.0 °F 57.9 °F 55% 29.98 in 10.0 mi NNE 9.2 mph - N/A   Mostly Cloudy
5:53 PM 72.0 °F 57.9 °F 61% 29.97 in 10.0 mi NE 8.1 mph - N/A   Overcast
6:53 PM 73.0 °F 57.9 °F 59% 29.96 in 10.0 mi NNE 8.1 mph - N/A   Mostly Cloudy
7:53 PM 69.1 °F 57.0 °F 65% 29.97 in 10.0 mi ENE 5.8 mph - N/A   Scattered Clouds
8:53 PM 66.0 °F 57.9 °F 75% 29.99 in 10.0 mi ENE 4.6 mph - N/A   Mostly Cloudy
9:53 PM 64.9 °F 57.9 °F 78% 30.00 in 10.0 mi Calm Calm - N/A   Clear
10:53 PM 63.0 °F 59.0 °F 87% 30.01 in 10.0 mi Calm Calm - N/A   Clear
11:53 PM 62.1 °F 57.9 °F 86% 30.00 in 10.0 mi Calm Calm - N/A   Clear